Location: Godiavel Galaoual
(15.2485°N, 12.6604°W)
Time: 21:48:10
(UTC+00:00)

BEESAT - Pass Details

Date: 01 August 2021
Orbit: 699 x 708 km, 98.6° (Epoch: 25 September)

Event Time Altitude Azimuth Distance (km) Brightness Sun altitude
Rises 19:43:43 0° 18° (NNE) 3,095 ? -6.1°
Reaches altitude 10° 19:46:01 10° 23° (NNE) 2,176 ? -6.6°
Maximum altitude 19:50:41 57° 101° (ESE) 828 ? -7.6°
Drops below altitude 10° 19:55:22 10° 180° (S) 2,170 ? -8.7°
Sets 19:57:39 0° 184° (S) 3,086 ? -9.2°
